Location: *
(57.8420°S, 159.8600°W)
Time: 12:59:47
(UTC+00:00)

ADEOS II - Pass Details

Date: 18 May 2021
Orbit: 799 x 801 km, 98.6° (Epoch: 22 June)

Event Time Altitude Azimuth Distance (km) Brightness Sun altitude
Rises 03:32:02 0° 165° (SSE) 3,359 4.9 -8.4°
Reaches altitude 10° 03:35:07 10° 184° (S) 2,422 4.4 -8.8°
Maximum altitude 03:38:30 17° 223° (SW) 1,951 4.4 -9.2°
Drops below altitude 10° 03:41:52 10° 262° (W) 2,411 5.6 -9.6°
Sets 03:44:56 0° 281° (W) 3,336 7.3 -10.0°
